Showing default

FLOCK 4BE 27, 60513

Orbit data source: Space-Track

FLOCK 4BE 27, 60513 is a payload satellite owned by Planet (US) in SSO that was launched on Fri, 16 Aug 2024 UTC via an FALCON 9 launch vehicle from the Air Force Western Test Range (AFWTR). Payload-class satellites include a variety of spacecraft equipped with specific instruments for various scientific and technological missions. These include communications satellites like Starlink; space stations such as the ISS; scientific satellites like the Hubble; Earth observation satellites from companies like Planet Labs, Umbra, and HawkEye 360; GPS; miniature CubeSats for education and research; and military/defense satellites.

Loading next visibility...
Identifier
60513, 2024-149AX
Orbit
SSO
Country
Flag of USUS
Related business
Manufacturer
Planet
Mission
Operational Commercial Imaging
Bus & Motor
CUBESAT 3U, Unknown motor
Mass
5.7 kg wet, 5.7 kg dry
Launch date (UTC)
2024-08-16 (1 year ago)
Launch vehicle
FALCON 9
Launch site
Air Force Western Test Range (AFWTR)
Object type
Payload
Rocket body
Debris
Shape & HBR
Box + 2 Pan, 1.0 m
Radar Cross Section
0.072 m², Medium (>0.1 m² and < 1m²)

Expand to show TLE details & history
Last TLE update: 10 hours ago

TLE from 10 hours ago
0 FLOCK 4BE 27
1 60513U 24149AX  25300.47562954  .00010551  00000-0  37638-3 0  9999
2 60513  97.4037  17.8167 0005408  63.6530 296.5264 15.29057356 66512
Epoch: 2025-10-27T11:24Z
TLE epoch observation values (Epoch: 2025-10-27T11:24:54.392Z)
Latitude
-0.0001°
Longitude
170.51314°
Altitude
480.077 km
Speed
7.626 km/s
True Right ascension
01h 11m 16s
True Declination
0° 00' 00"
Sunlit
Object was in full shadow at epoch
Visualization orbit readout
Latitude
Unknown
Longitude
Unknown
Altitude
Unknown
Speed
Unknown
Apparent Right ascension
Unknown
Apparent Declination
Unknown
Sunlit
N/A
Visualization observer readout
Local Sidereal Time
16:36:19
Azimuth
Unknown
Elevation
Unknown
Doppler factor
Unknown
Orbital elements
Apogee altitude
479.289 km
Perigee altitude
471.876 km
Semi-major axis
6,853.72 km
Eccentricity
0.00054
Inclination
97.4037°
RAAN
17.8167°
Arg. of periapsis
63.653°
True anomaly
296.47094°
Mean anomaly
296.5264°
Eccentric anomaly
296.49867°
Mean motion
3.8252 °/min
Orbital period
94.11 mins
BSTAR
0.00037638
Loading maneuver chart data...
Computing Atmospheric mass density...
Loading historical data...
Loading historical data...
Loading historical data...
Loading historical data...
Loading historical data...
Loading historical data...
Loading historical data...

Documentation

Showing up to 5 results
|